CW7858 Weather Reports


Display with metric or nautical units.
time (UTC)temp
F
wind
direction
speed
MPH
gust
MPH
rain 1hr
in
rain 24hr
in
rain mn
in
humidity
%
barometer
mb
20200813142246 97 133 7.0 12.0 0.00 0.00 0.00 32 1011.3
20200813141244 97 167 4.0 10.0 0.00 0.00 0.00 30 1011.4
20200813140253 97 131 5.0 14.0 0.00 0.00 0.00 31 1011.3
20200813135240 97 223 3.0 9.0 0.00 0.00 0.00 30 1011.5
20200813134244 96 212 1.0 12.0 0.00 0.00 0.00 32 1011.8
20200813133244 95 88 1.0 12.0 0.00 0.00 0.00 34 1011.7
20200813132246 96 134 5.0 11.0 0.00 0.00 0.00 27 1011.9
20200813131246 97 164 4.0 10.0 0.00 0.00 0.00 26 1011.9
20200813130247 96 162 3.0 6.0 0.00 0.00 0.00 25 1011.9
20200813125246 95 64 3.0 7.0 0.00 0.00 0.00 25 1012.0
20200813124240 94 16 3.0 6.0 0.00 0.00 0.00 26 1012.3
20200813123241 94 41 3.0 8.0 0.00 0.00 0.00 25 1012.3
20200813122245 94 8 0.0 6.0 0.00 0.00 0.00 26 1012.4
20200813121248 94 360 0.0 4.0 0.00 0.00 0.00 26 1012.6
20200813120245 93 360 1.0 6.0 0.00 0.00 0.00 27 1012.6
20200813115240 93 56 0.0 4.0 0.00 0.00 0.00 27 1012.9
20200813114245 93 58 3.0 7.0 0.00 0.00 0.00 27 1013.0
20200813113240 93 250 2.0 5.0 0.00 0.00 0.00 28 1013.0
20200813112240 93 308 1.0 6.0 0.00 0.00 0.00 27 1013.3
20200813111246 94 264 2.0 3.0 0.00 0.00 0.00 27 1013.4
20200813110245 93 136 0.0 8.0 0.00 0.00 0.00 29 1013.4
20200813105246 93 150 2.0 3.0 0.00 0.00 0.00 31 1013.6
20200813104247 93 141 3.0 6.0 0.00 0.00 0.00 31 1013.7
20200813103249 92 158 3.0 5.0 0.00 0.00 0.00 32 1013.7
20200813102241 90 216 2.0 7.0 0.00 0.00 0.00 36 1013.8
20200813101245 90 237 2.0 6.0 0.00 0.00 0.00 36 1013.8
20200813100254 89 270 2.0 5.0 0.00 0.00 0.00 38 1013.8
20200813095240 88 275 0.0 7.0 0.00 0.00 0.00 40 1013.8
20200813094243 87 344 1.0 3.0 0.00 0.00 0.00 43 1013.9
20200813093244 87 357 1.0 5.0 0.00 0.00 0.00 43 1013.9
20200813092246 86 261 1.0 4.0 0.00 0.00 0.00 46 1013.9
20200813091239 85 267 1.0 6.0 0.00 0.00 0.00 48 1014.0
20200813090245 86 291 2.0 5.0 0.00 0.00 0.00 48 1014.0
20200813085247 86 267 1.0 6.0 0.00 0.00 0.00 47 1014.0
20200813084248 85 203 1.0 5.0 0.00 0.00 0.00 50 1014.2
20200813083248 84 232 1.0 3.0 0.00 0.00 0.00 52 1014.2
20200813082242 82 240 1.0 5.0 0.00 0.00 0.00 55 1014.1
20200813081246 82 220 1.0 3.0 0.00 0.00 0.00 55 1014.3
20200813080249 82 217 1.0 6.0 0.00 0.00 0.00 55 1014.3
20200813075247 82 223 2.0 4.0 0.00 0.00 0.00 53 1014.3
20200813074240 82 223 0.0 2.0 0.00 0.00 0.00 54 1014.3
20200813073244 81 222 1.0 4.0 0.00 0.00 0.00 57 1014.3
20200813072239 79 217 0.0 6.0 0.00 0.00 0.00 60 1014.1
20200813071247 79 236 3.0 7.0 0.00 0.00 0.00 60 1014.1
20200813070245 79 219 1.0 4.0 0.00 0.00 0.00 61 1014.1
20200813065245 79 215 1.0 3.0 0.00 0.00 0.00 60 1014.0
20200813064247 79 215 1.0 3.0 0.00 0.00 0.00 59 1013.9
20200813063243 79 215 1.0 2.0 0.00 0.00 0.00 59 1013.9
20200813062245 78 215 0.0 1.0 0.00 0.00 0.00 61 1013.8
20200813061239 77 215 0.0 1.0 0.00 0.00 0.00 64 1013.7
20200813060252 76 215 0.0 1.0 0.00 0.00 0.00 65 1013.7
20200813055245 75 215 0.0 1.0 0.00 0.00 0.00 66 1013.6
20200813054245 75 215 1.0 2.0 0.00 0.00 0.00 66 1013.5
20200813053242 75 215 1.0 2.0 0.00 0.00 0.00 66 1013.5
20200813052243 75 215 0.0 2.0 0.00 0.00 0.00 66 1013.4
20200813051238 75 215 2.0 2.0 0.00 0.00 0.00 65 1013.3
20200813050241 75 215 0.0 2.0 0.00 0.00 0.00 65 1013.3
20200813045244 75 215 0.0 2.0 0.00 0.00 0.00 66 1013.0
20200813044240 75 215 0.0 2.0 0.00 0.00 0.00 66 1012.9
20200813043245 75 215 0.0 2.0 0.00 0.00 0.00 67 1012.9
20200813042246 75 215 0.0 3.0 0.00 0.00 0.00 67 1012.8
20200813041240 75 215 1.0 3.0 0.00 0.00 0.00 67 1012.8
20200813040240 75 213 0.0 3.0 0.00 0.00 0.00 66 1012.8
20200813035245 75 213 1.0 4.0 0.00 0.00 0.00 66 1012.9
20200813034246 75 203 2.0 3.0 0.00 0.00 0.00 65 1012.9
20200813033241 76 203 1.0 3.0 0.00 0.00 0.00 64 1012.9
20200813032246 76 206 2.0 4.0 0.00 0.00 0.00 64 1012.8
20200813031243 76 209 2.0 3.0 0.00 0.00 0.00 64 1012.7
20200813030245 77 206 1.0 3.0 0.00 0.00 0.00 63 1012.7
20200813025241 77 244 0.0 3.0 0.00 0.00 0.00 63 1012.7
20200813024247 77 244 1.0 4.0 0.00 0.00 0.00 64 1012.8
20200813023249 77 246 3.0 6.0 0.00 0.00 0.00 64 1012.8
20200813022243 77 30 0.0 2.0 0.00 0.00 0.00 64 1012.9
20200813021238 77 30 0.0 1.0 0.00 0.00 0.00 66 1012.8
20200813020248 78 30 0.0 2.0 0.00 0.00 0.00 67 1012.8
20200813015243 78 30 0.0 2.0 0.00 0.00 0.00 66 1012.8
20200813014245 78 30 0.0 3.0 0.00 0.00 0.00 67 1012.9
20200813013241 79 30 0.0 0.0 0.00 0.00 0.00 67 1012.9
20200813012236 79 30 0.0 0.0 0.00 0.00 0.00 66 1013.0
20200813011248 79 30 0.0 0.0 0.00 0.00 0.00 66 1013.1
20200813010243 79 30 0.0 2.0 0.00 0.00 0.00 65 1013.1
20200813005246 79 30 0.0 1.0 0.00 0.00 0.00 64 1013.1
20200813004239 80 30 0.0 1.0 0.00 0.00 0.00 63 1013.2
20200813003241 80 30 0.0 1.0 0.00 0.00 0.00 65 1013.2
20200813002248 80 30 0.0 2.0 0.00 0.00 0.00 65 1013.3
20200813001244 80 30 0.0 2.0 0.00 0.00 0.00 65 1013.4
20200813000242 80 30 0.0 3.0 0.00 0.00 0.00 65 1013.4
20200812235245 80 30 1.0 3.0 0.00 0.00 0.00 64 1013.3
20200812234246 81 30 0.0 3.0 0.00 0.00 0.00 63 1013.3
20200812233246 81 30 1.0 2.0 0.00 0.00 0.00 62 1013.3
20200812232243 81 30 1.0 5.0 0.00 0.00 0.00 61 1013.3
20200812231242 82 128 1.0 2.0 0.00 0.00 0.00 59 1013.4
20200812230236 82 137 0.0 1.0 0.00 0.00 0.00 56 1013.4
20200812225245 82 137 0.0 1.0 0.00 0.00 0.00 55 1013.3
20200812224246 82 137 0.0 1.0 0.00 0.00 0.00 55 1013.3
20200812223242 82 137 0.0 2.0 0.00 0.00 0.00 55 1013.3
20200812222246 82 133 0.0 5.0 0.00 0.00 0.00 56 1013.2
20200812221241 82 144 1.0 5.0 0.00 0.00 0.00 56 1013.3
20200812220258 83 144 2.0 5.0 0.00 0.00 0.00 56 1013.3
20200812215246 83 141 0.0 6.0 0.00 0.00 0.00 55 1013.4
20200812214248 83 147 0.0 5.0 0.00 0.00 0.00 55 1013.4
20200812213243 84 181 0.0 3.0 0.00 0.00 0.00 54 1013.4
20200812212246 84 150 1.0 4.0 0.00 0.00 0.00 53 1013.3
20200812211246 84 128 0.0 5.0 0.00 0.00 0.00 53 1013.2
20200812210245 84 136 0.0 2.0 0.00 0.00 0.00 52 1013.2
20200812205239 85 175 0.0 3.0 0.00 0.00 0.00 51 1013.0
20200812204243 85 137 3.0 6.0 0.00 0.00 0.00 50 1012.9
20200812203240 85 178 1.0 3.0 0.00 0.00 0.00 49 1012.9
20200812202239 85 216 0.0 2.0 0.00 0.00 0.00 49 1012.7
20200812201243 85 216 1.0 6.0 0.00 0.00 0.00 47 1012.4
20200812200240 86 203 0.0 3.0 0.00 0.00 0.00 45 1012.4
20200812195244 86 240 2.0 5.0 0.00 0.00 0.00 44 1012.2
20200812194243 86 140 2.0 8.0 0.00 0.00 0.00 43 1011.9
20200812193245 87 240 1.0 7.0 0.00 0.00 0.00 41 1011.9
20200812192238 87 217 2.0 7.0 0.00 0.00 0.00 40 1011.7
20200812191246 87 157 1.0 7.0 0.00 0.00 0.00 39 1011.4
20200812190246 88 71 0.0 3.0 0.00 0.00 0.00 38 1011.4
20200812185240 88 251 1.0 8.0 0.00 0.00 0.00 39 1011.3
20200812184245 89 83 1.0 6.0 0.00 0.00 0.00 37 1011.1
20200812183242 89 148 2.0 6.0 0.00 0.00 0.00 37 1011.1
20200812182236 90 247 1.0 7.0 0.00 0.00 0.00 38 1010.7
20200812181301 91 233 1.0 6.0 0.00 0.00 0.00 37 1010.7
20200812180249 91 199 2.0 8.0 0.00 0.00 0.00 37 1010.5
20200812175242 91 223 1.0 13.0 0.00 0.00 0.00 36 1010.4
20200812174240 92 174 1.0 9.0 0.00 0.00 0.00 34 1010.4
20200812173241 93 251 1.0 7.0 0.00 0.00 0.00 33 1010.4
20200812172245 93 253 1.0 7.0 0.00 0.00 0.00 33 1010.6
20200812171243 91 119 2.0 12.0 0.00 0.00 0.00 35 1010.4
20200812170246 92 136 4.0 12.0 0.00 0.00 0.00 35 1010.5
20200812165241 94 121 5.0 11.0 0.00 0.00 0.00 32 1010.4
20200812164239 95 243 1.0 10.0 0.00 0.00 0.00 31 1010.6
20200812163242 95 226 1.0 6.0 0.00 0.00 0.00 31 1010.6
20200812162247 95 199 1.0 6.0 0.00 0.00 0.00 31 1010.7
20200812161247 95 237 1.0 6.0 0.00 0.00 0.00 31 1010.7
20200812160243 95 150 1.0 11.0 0.00 0.00 0.00 32 1010.7
20200812155246 95 164 2.0 7.0 0.00 0.00 0.00 32 1010.8
20200812154249 95 212 3.0 11.0 0.00 0.00 0.00 32 1010.6
20200812153246 95 147 3.0 8.0 0.00 0.00 0.00 33 1010.6
20200812152242 95 264 6.0 11.0 0.00 0.00 0.00 32 1010.4
20200812151250 95 158 4.0 10.0 0.00 0.00 0.00 32 1010.3
20200812150243 96 200 6.0 13.0 0.00 0.00 0.00 30 1010.3
20200812145246 95 247 4.0 12.0 0.00 0.00 0.00 31 1010.3
20200812144245 96 232 4.0 12.0 0.00 0.00 0.00 29 1010.8
20200812143247 96 145 4.0 14.0 0.00 0.00 0.00 30 1010.8